sat.trackr.live / text

‹ back to catalog

STARLINK-36516

NORAD 67455 · 2026-008L

PAYLOAD ACTIVE UNKNOWN

§ Identity

Operator
Country
US
Launch date
2026-01-14
Launch site
AFETR
Launch vehicle
Mass (kg)
RCS (m²)

Purposes: comms

External: N2YO · Heavens-Above · Gunter

§ Orbital elements

Epoch: 2026-05-24T23:45:31.621248Z

Period
94.27 min
Inclination
42.9949°
Eccentricity
0.0001354
Mean motion
15.27583587 rev/d
Perigee alt
482.1 km
Apogee alt
484.0 km
Semi-major
6,861.2 km
B*
5.2390e-4
RAAN
134.1266°
Arg perigee
313.9853°
Mean anomaly
46.0887°
Rev number
2,124

§ Raw data

STARLINK-365161 67455U 26008L   26144.98994932  .00014184  00000+0  52390-3 0  99922 67455  42.9949 134.1266 0001354 313.9853  46.0887 15.27583587 21247

JSON: /api/v1/satellites/67455 · /tle

For live sub-satellite position, see the globe view (requires WebGL).

§ Visibility from observer

Set your observer location to see the next 7 days of passes ≥ 10°. The values pass through the URL so the page stays shareable.

No JS? Fill the form by hand. The geolocation button needs JavaScript.